User: anonymous   Login
Location: Rounton
(54.4000°N, 1.3500°W)
Time: 13:58:58
(UTC+01:00)
Language:

FENGYUN 1C DEB - Orbit

View from above orbital plane
View from above orbital plane
View from above satellite
View from above satellite

Ground track
Ground track

The orbit data is extracted from the following two-line orbital elements,

1 32156U 99025CTA 22276.44231409  .00000912  00000-0  37228-3 0  9995
2 32156  99.2894 350.9928 0087439 170.0431 190.2506 14.27965843481547
Epoch (UTC): 03 October 2022 10:36:55
Eccentricity: 0.0087439
inclination: 99.2894°
perigee height: 736 km
apogee height: 861 km
right ascension of ascending node: 350.9928°
argument of perigee: 170.0431°
revolutions per day: 14.27965843
mean anomaly at epoch: 190.2506°
orbit number at epoch: 48154

The dashed part of the orbit path shows where the satellite is in the earth's shadow,  

DLR